Regional Weather Roundup
Issued by NWS

Home | Current Version | Previous Version | Graphics & Text | Print | Product List | Glossary On
Versions: 1 2 3 4 5 6 7 8 9 10 11 12 13 14 15 16 17 18 19 20 21 22 23 24 25 26 27 28 29 30 31 32 33 34 35 36 37 38 39 40 41 42 43 44 45 46 47 48 49 50
000
ASUS43 KBIS 231110
RWRND

NORTH DAKOTA REGIONAL WEATHER ROUNDUP
NATIONAL WEATHER SERVICE BISMARCK ND
500 AM CST TUE JAN 23 2018

NOTE: "FAIR" INDICATES FEW OR NO CLOUDS BELOW 12,000 FEET WITH NO
SIGNIFICANT WEATHER AND/OR OBSTRUCTIONS TO VISIBILITY.


NDZ001>003-009>011-017-231200-
NORTHWEST NORTH DAKOTA

CITY           SKY/WX    TMP DP  RH WIND       PRES   REMARKS
WILLISTON      PTCLDY    20  15  81 SW7       30.01R WCI  11
MINOT          CLOUDY    16  12  84 SW9       29.95S WCI   4
MINOT AFB      CLOUDY     8   5  86 W6        29.94R WCI  -2
$$

NDZ018>021-031>035-040>046-231200-
SOUTHWEST NORTH DAKOTA

CITY           SKY/WX    TMP DP  RH WIND       PRES   REMARKS
BISMARCK       FOG       17  14  88 CALM      30.02S VSB 1/2
DICKINSON      PTCLDY    24  18  77 W13       29.97S WCI  12
GARRISON         N/A      8   5  87 CALM      29.97S
HETTINGER ARPT PTCLDY    24  18  77 W12       30.02S WCI  13
$$

NDZ004>008-012>016-024-026-027-054-231200-
NORTHEAST NORTH DAKOTA

CITY           SKY/WX    TMP DP  RH WIND       PRES   REMARKS
GRAND FORKS    CLOUDY    21  16  81 E5        30.06R WCI  15
GRND FRKS AFB  CLOUDY    20  16  83 SE3       30.05S
DEVILS LAKE    MIX PCPN  19  17  92 S10       30.01S FOG     WCI   7
$$

NDZ022-023-025-028>030-036>039-047>053-231200-
SOUTHEAST NORTH DAKOTA

CITY           SKY/WX    TMP DP  RH WIND       PRES   REMARKS
FARGO          CLOUDY    21  17  84 N5        30.07S WCI  15
JAMESTOWN      CLOUDY    19  18  95 SW8       30.01S WCI   9
$$





USA.gov is the U.S. government's official web portal to all federal, state and local government web resources and services.